Date,TemperatureHighF,TemperatureAvgF,TemperatureLowF,DewpointHighF,DewpointAvgF,DewpointLowF,HumidityHigh,HumidityAvg,HumidityLow,PressureMaxIn,PressureMinIn,WindSpeedMaxMPH,WindSpeedAvgMPH,GustSpeedMaxMPH,PrecipitationSumIn
2013-10-1,78.8,65.3,39.0,56.4,41.6,27.8,73,47,18,29.99,29.67,6,1,14,0.01
2013-10-2,120.6,61.0,49.8,53.1,40.8,33.3,86,52,20,30.10,29.88,13,1,51,0.14
2013-10-3,72.1,57.8,36.7,59.3,55.6,12.6,98,93,10,29.96,29.82,6,3,51,0.45
2013-10-4,64.8,57.9,53.6,59.2,56.2,5.2,99,94,33,30.00,29.90,11,3,18,0.22
2013-10-5,70.9,59.0,5.5,66.9,57.5,5.2,99,95,87,29.95,29.69,7,1,16,0.67
2013-10-6,60.3,49.4,7.0,50.5,44.5,-0.6,97,85,58,29.79,29.68,4,0,8,0.05
2013-10-7,74.8,51.9,42.4,52.8,43.4,-9.9,96,76,36,30.03,29.79,6,1,11,0.00
2013-10-8,75.2,58.4,41.5,51.7,44.8,-25.2,95,65,36,30.03,29.93,8,2,16,0.00
2013-10-9,122.7,63.3,50.2,55.0,48.8,-6.9,83,62,10,30.11,29.99,7,1,15,0.00
2013-10-10,74.1,57.8,45.0,53.3,47.3,42.4,93,71,40,30.11,29.97,4,1,11,0.00
2013-10-11,120.2,63.2,12.7,96.7,51.9,-2.9,92,69,43,29.98,29.76,8,2,23,0.00
2013-10-12,68.2,58.2,47.7,54.7,45.1,38.9,75,62,44,30.15,29.75,8,2,15,0.00
2013-10-13,61.3,52.6,40.3,42.5,37.2,30.8,93,60,32,30.41,30.15,6,1,9,1.51
2013-10-14,59.2,57.3,47.1,42.7,37.4,34.3,74,48,39,30.42,30.03,7,1,15,0.00
2013-10-15,66.9,51.0,36.9,54.5,48.2,0.1,97,91,10,30.04,29.69,24,1,51,0.63
2013-10-16,49.5,45.3,35.4,47.7,41.5,-5.9,96,88,10,29.92,29.74,24,1,8,0.06
2013-10-17,56.1,44.5,34.2,46.7,39.6,-0.4,98,84,10,29.90,29.77,3,0,11,0.01
2013-10-18,53.8,45.5,39.9,45.1,36.8,-6.7,94,75,10,29.93,29.76,5,1,13,0.14
2013-10-19,50.2,41.4,34.5,41.9,35.0,-21.8,93,79,10,29.85,29.68,5,1,8,0.02
2013-10-20,45.3,37.7,29.1,41.9,35.9,-20.4,99,93,86,29.80,29.64,6,1,17,0.17
2013-10-21,79.9,36.3,33.1,72.8,27.0,20.7,92,70,48,29.92,29.80,7,2,52,0.00
2013-10-22,85.6,34.1,26.4,74.8,27.0,-11.9,90,76,10,30.01,29.91,4,1,9,0.00
2013-10-23,41.0,33.5,24.8,33.9,27.6,21.4,92,79,62,30.05,29.97,4,1,12,0.00
2013-10-24,45.9,37.6,32.4,30.7,27.2,24.0,77,66,48,30.28,30.05,6,1,13,0.00
2013-10-25,55.8,44.5,34.7,39.8,32.0,-3.3,82,63,45,30.30,29.74,10,2,49,0.00
2013-10-26,52.7,44.7,33.8,39.6,31.7,26.1,79,61,47,30.06,29.73,8,2,19,0.00
2013-10-27,60.1,42.6,27.0,35.2,29.7,23.6,90,64,33,30.11,29.79,8,1,13,0.00
2013-10-28,45.0,36.6,27.3,32.0,23.8,19.0,78,61,41,30.43,30.11,10,3,21,0.00
2013-10-29,43.2,36.8,27.1,37.1,29.4,19.7,88,74,67,30.42,30.10,7,2,11,0.00
2013-10-30,52.3,46.4,36.0,52.1,45.7,-9.0,99,97,88,30.11,29.68,4,1,14,0.21
2013-10-31,52.7,48.0,40.6,52.2,46.7,24.3,99,95,74,29.68,29.35,4,1,16,0.02